Flag for Germany Weather past 2 weeks in Stuhr, Lower Saxony, Germany

Now
57 °F

Clear.


Feels Like: 57 °F
Forecast: 60 / 88 °F
Wind: 5 mph from Southwest

Location: Bremen Airport

Current Time: Aug 5, 2015 at 2:16:37 AM

Latest Report: Aug 5, 2015 at 1:20 AM


Visibility: 10 mi

Pressure: 30.04 "Hg

Humidity: 94%

Dew point: 55 °F

Location of StuhrLocation

Historic Weather in Stuhr — Graph

°F

Stuhr temperature yesterday

Maximum temperature yesterday: 81 °F (at 1:20 PM)
Minimum temperature yesterday: 61 °F (at 11:20 PM)
Average temperature yesterday: 70 °F

Past Weeks' High & Low Weather Summary

 TemperatureHumidityPressure
High88 °F (Aug 3, 3:50 PM)100% (Jul 21, 2:50 AM)30.15 "Hg (Jul 21, 2:50 AM)
Low46 °F (Aug 2, 5:50 AM)27% (Aug 3, 3:50 PM)29.42 "Hg (Jul 25, 12:20 PM)
Average63 °F73%29.85 "Hg
* Reported Jul 21 1:20 AM — Aug 5 1:20 AM, Stuhr, Weather by CustomWeather, © 2015

Note: Actual official high and low records may vary slightly from our data, if they occured in-between our weather recording intervals... More about our weather records

Advertising

Stuhr weather history for previous 24 hours

 ConditionsComfort  
Time TempWeatherWind HumidityBarometerVisibility
1:20 AM
Wed, Aug 5
57 °FClear.5 mph94%30.04 "Hg10 mi
12:20 AM61 °FPassing clouds.7 mph88%30.04 "HgN/A
11:50 PM
Tue, Aug 4
61 °FPassing clouds.8 mph88%30.04 "HgN/A
11:20 PM61 °FPassing clouds.8 mph88%30.01 "HgN/A
10:50 PM63 °FPassing clouds.8 mph83%30.01 "HgN/A
10:20 PM63 °FPassing clouds.9 mph83%30.01 "HgN/A
9:50 PM63 °FScattered clouds.10 mph83%29.98 "HgN/A
9:20 PM63 °FPartly sunny.12 mph88%29.98 "HgN/A
8:50 PM63 °FPartly sunny.14 mph88%29.98 "HgN/A
8:20 PM64 °FPartly sunny.16 mph88%29.95 "HgN/A
7:50 PM66 °FDrizzle. Partly sunny.16 mph88%29.95 "HgN/A
7:20 PM68 °FDrizzle. Broken clouds.10 mph88%29.92 "HgN/A
6:50 PM68 °FLight rain. Partly sunny.9 mph88%29.92 "HgN/A
6:20 PM68 °FBroken clouds.7 mph88%29.92 "HgN/A
5:50 PM68 °FBroken clouds.7 mph88%29.92 "HgN/A
5:20 PM68 °FLight rain. Broken clouds.6 mph88%29.92 "HgN/A
4:50 PM70 °FLight rain. Broken clouds.7 mph88%29.92 "Hg6 mi
4:20 PM73 °FLight rain. Partly sunny.15 mph69%29.92 "HgN/A
3:50 PM77 °FPartly sunny.8 mph61%29.89 "HgN/A
3:20 PM77 °FBroken clouds.10 mph61%29.89 "HgN/A
2:50 PM77 °FBroken clouds.9 mph61%29.86 "HgN/A
2:20 PM79 °FBroken clouds.10 mph58%29.86 "HgN/A
1:50 PM79 °FPartly sunny.7 mph54%29.86 "HgN/A
1:20 PM81 °FPartly sunny.2 mph48%29.86 "HgN/A
12:50 PM79 °FPartly sunny.6 mph51%29.86 "HgN/A
12:20 PM79 °FPartly sunny.7 mph51%29.86 "HgN/A
11:50 AM77 °FSunny.10 mph54%29.86 "Hg10 mi
11:20 AM77 °FPassing clouds.13 mph54%29.83 "HgN/A
10:50 AM77 °FPassing clouds.10 mph54%29.86 "HgN/A
10:20 AM75 °FSunny.10 mph54%29.86 "Hg10 mi
9:50 AM75 °FPassing clouds.3 mph54%29.86 "HgN/A
9:20 AM73 °FSunny.6 mph61%29.86 "Hg10 mi
8:50 AM72 °FSunny.13 mph65%29.86 "Hg10 mi
8:20 AM72 °FSunny.7 mph65%29.83 "Hg10 mi
7:50 AM68 °FSunny.7 mph69%29.83 "Hg10 mi
7:20 AM68 °FSunny.8 mph69%29.83 "Hg10 mi
6:50 AM66 °FSunny.7 mph73%29.86 "Hg10 mi
6:20 AM64 °FClear.6 mph73%29.86 "Hg10 mi
5:50 AM64 °FClear.6 mph73%29.83 "Hg10 mi
5:20 AM64 °FPassing clouds.5 mph73%29.86 "HgN/A
4:50 AM64 °FClear.5 mph73%29.86 "Hg10 mi
4:20 AM66 °FClear.3 mph73%29.89 "Hg10 mi
3:50 AM66 °FClear.6 mph73%29.89 "Hg10 mi
3:20 AM63 °FClear.2 mph83%29.89 "Hg10 mi
2:50 AM68 °FClear.No wind64%29.92 "Hg10 mi
2:20 AM70 °FClear.6 mph64%29.89 "Hg10 mi
Weather by CustomWeather, © 2015

See weather overviewHow to use our weather pages